FW5449 Weather Reports


time (UTC)temp
C
wind
direction
speed
KPH
gust
KPH
rain 1hr
cm
rain 24hr
cm
rain mn
cm
humidity
%
barometer
mb
20260510185543 18 79 4.8 11.3 0.00 0.00 0.00 66 1019.4
20260510185037 17 170 3.2 11.3 0.00 0.00 0.00 67 1019.4
20260510184757 17 265 3.2 8.0 0.00 0.00 0.00 70 1019.5
20260510184032 17 237 4.8 9.7 0.00 0.00 0.00 69 1019.5
20260510183533 16 157 4.8 9.7 0.00 0.00 0.00 70 1019.7
20260510183254 17 150 4.8 11.3 0.00 0.00 0.00 70 1019.7
20260510182535 17 68 6.4 11.3 0.00 0.00 0.00 68 1019.6
20260510182027 16 108 4.8 9.7 0.00 0.00 0.00 71 1019.6
20260510181519 16 143 6.4 11.3 0.00 0.00 0.00 71 1019.7
20260510181019 16 153 6.4 12.9 0.00 0.00 0.00 72 1019.7
20260510180518 15 128 4.8 12.9 0.00 0.00 0.00 75 1019.6
20260510180017 15 143 4.8 11.3 0.00 0.00 0.00 74 1019.5
20260510175513 15 101 4.8 11.3 0.00 0.00 0.00 74 1019.5
20260510175014 15 133 3.2 8.0 0.00 0.00 0.00 73 1019.6
20260510174508 15 131 3.2 8.0 0.00 0.00 0.00 73 1019.6
20260510174008 15 135 1.6 8.0 0.00 0.00 0.00 72 1019.5
20260510173511 16 334 1.6 6.4 0.00 0.00 0.00 75 1019.4
20260510173239 15 103 3.2 6.4 0.00 0.00 0.00 73 1019.5
20260510172506 15 22 3.2 8.0 0.00 0.00 0.00 74 1019.4
20260510172005 15 115 3.2 8.0 0.00 0.00 0.00 73 1019.3
20260510171503 15 183 4.8 8.0 0.00 0.00 0.00 73 1019.4
20260510171004 15 200 4.8 12.9 0.00 0.00 0.00 75 1019.2
20260510170500 15 183 6.4 12.9 0.00 0.00 0.00 75 1019.1
20260510165959 15 158 6.4 14.5 0.00 0.00 0.00 76 1019.2
20260510165718 15 176 4.8 14.5 0.00 0.00 0.00 74 1019.2
20260510164958 15 183 4.8 12.9 0.00 0.00 0.00 72 1019.2
20260510164458 15 172 4.8 12.9 0.00 0.00 0.00 75 1019.1
20260510163956 15 185 4.8 11.3 0.00 0.00 0.00 75 1019.2
20260510163453 15 223 4.8 9.7 0.00 0.00 0.00 76 1019.1
20260510163444 15 154 4.8 11.3 0.00 0.00 0.00 76 1019.2
20260510162455 14 173 4.8 11.3 0.00 0.00 0.00 76 1019.1
20260510161953 14 110 4.8 11.3 0.00 0.00 0.00 79 1019.1
20260510161453 13 144 4.8 9.7 0.00 0.00 0.00 80 1019.2
20260510160955 13 166 4.8 9.7 0.00 0.00 0.00 80 1019.1
20260510160455 13 234 4.8 9.7 0.00 0.00 0.00 81 1019.0
20260510155941 13 231 4.8 12.9 0.00 0.00 0.00 81 1019.0
20260510155441 13 191 6.4 12.9 0.00 0.00 0.00 81 1019.0
20260510155202 13 200 4.8 11.3 0.00 0.00 0.00 80 1019.0
20260510154440 13 236 6.4 14.5 0.00 0.00 0.00 81 1019.1
20260510153940 13 229 6.4 14.5 0.00 0.00 0.00 82 1019.0
20260510153439 13 221 4.8 14.5 0.00 0.00 0.00 82 1019.0
20260510152941 12 256 4.8 14.5 0.00 0.00 0.00 83 1018.9
20260510152439 12 187 4.8 12.9 0.00 0.00 0.00 83 1018.9
20260510152432 12 253 6.4 12.9 0.00 0.00 0.00 83 1018.9
20260510151436 12 213 4.8 9.7 0.00 0.00 0.00 83 1018.8
20260510150937 12 218 4.8 9.7 0.00 0.00 0.00 84 1018.8
20260510150435 12 230 4.8 9.7 0.00 0.00 0.00 85 1018.7
20260510145936 12 168 4.8 9.7 0.00 0.00 0.00 85 1018.6
20260510145434 12 184 4.8 12.9 0.00 0.00 0.00 85 1018.6
20260510144931 12 191 4.8 12.9 0.00 0.00 0.00 85 1018.5
20260510144430 12 187 4.8 9.7 0.00 0.00 0.00 85 1018.5
20260510143922 12 204 4.8 11.3 0.00 0.00 0.00 85 1018.6
20260510143422 11 229 4.8 11.3 0.00 0.00 0.00 85 1018.5
20260510143400 11 180 3.2 9.7 0.00 0.00 0.00 86 1018.4
20260510142854 11 187 3.2 6.4 0.00 0.00 0.00 87 1018.1
20260510141908 11 173 3.2 6.4 0.00 0.00 0.00 86 1018.0
20260510141403 11 179 3.2 6.4 0.00 0.00 0.00 87 1018.1
20260510140905 11 143 4.8 9.7 0.00 0.00 0.00 87 1018.1
20260510140402 11 166 4.8 11.3 0.00 0.00 0.00 87 1018.1
20260510135859 11 207 4.8 11.3 0.00 0.00 0.00 87 1018.1
20260510135357 11 158 4.8 11.3 0.00 0.00 0.00 88 1017.9
20260510134852 11 169 4.8 8.0 0.00 0.00 0.00 88 1017.9
20260510134348 11 200 4.8 9.7 0.00 0.00 0.00 88 1017.8
20260510133845 11 152 3.2 6.4 0.00 0.00 0.00 88 1017.9
20260510133343 11 139 3.2 6.4 0.00 0.00 0.00 89 1017.8
20260510132841 11 131 3.2 6.4 0.00 0.00 0.00 88 1017.8
20260510132332 11 131 3.2 6.4 0.00 0.00 0.00 88 1017.7
20260510131835 10 129 3.2 6.4 0.00 0.00 0.00 88 1018.0
20260510131325 10 159 3.2 9.7 0.00 0.00 0.00 88 1018.0
20260510130824 10 177 4.8 9.7 0.00 0.00 0.00 89 1018.0
20260510130316 10 196 4.8 9.7 0.00 0.00 0.00 89 1017.8
20260510125815 10 203 4.8 9.7 0.00 0.00 0.00 89 1017.8
20260510125317 10 179 4.8 6.4 0.00 0.00 0.00 89 1017.7
20260510124817 10 175 3.2 6.4 0.00 0.00 0.00 89 1017.5
20260510124314 10 185 3.2 6.4 0.00 0.00 0.00 89 1017.7
20260510124042 10 177 4.8 9.7 0.00 0.00 0.00 89 1017.6
20260510123800 10 167 6.4 11.3 0.00 0.00 0.00 89 1017.4
20260510122809 10 187 4.8 11.3 0.00 0.00 0.00 89 1017.3
20260510122306 10 190 4.8 9.7 0.00 0.00 0.00 88 1017.3
20260510121759 10 175 4.8 8.0 0.00 0.00 0.00 88 1017.3
20260510121256 10 198 4.8 9.7 0.00 0.00 0.00 88 1017.5
20260510120759 10 223 4.8 9.7 0.00 0.00 0.00 88 1017.6
20260510120251 10 180 3.2 6.4 0.00 0.00 0.00 88 1017.2
20260510115749 10 169 3.2 8.0 0.00 0.00 0.00 88 1017.4
20260510115249 10 179 4.8 8.0 0.00 0.00 0.00 88 1017.4
20260510114749 10 194 4.8 12.9 0.00 0.00 0.00 88 1017.4
20260510114244 10 195 4.8 12.9 0.00 0.00 0.00 88 1017.3
20260510113745 10 180 4.8 11.3 0.00 0.00 0.00 88 1017.3
20260510113245 10 179 6.4 14.5 0.00 0.00 0.00 88 1017.1
20260510112744 10 233 4.8 14.5 0.00 0.00 0.00 88 1017.3
20260510112242 10 221 4.8 11.3 0.00 0.00 0.00 88 1017.3
20260510111741 10 187 4.8 11.3 0.00 0.00 0.00 88 1017.1
20260510111242 11 182 6.4 11.3 0.00 0.00 0.00 88 1017.1
20260510110735 11 189 6.4 12.9 0.00 0.00 0.00 87 1017.2
20260510110720 11 216 6.4 12.9 0.00 0.00 0.00 87 1017.1
20260510105725 11 187 4.8 11.3 0.00 0.00 0.00 87 1017.1
20260510105225 11 213 4.8 11.3 0.00 0.00 0.00 87 1017.1
20260510104717 11 185 6.4 14.5 0.00 0.00 0.00 87 1017.1
20260510104215 11 214 8.0 16.1 0.00 0.00 0.00 86 1017.0
20260510103714 11 232 9.7 16.1 0.00 0.00 0.00 86 1017.0
20260510103216 11 240 8.0 14.5 0.00 0.00 0.00 86 1016.9
20260510102714 11 222 9.7 16.1 0.00 0.00 0.00 86 1016.7
20260510102214 11 239 11.3 20.9 0.00 0.00 0.00 86 1016.9
20260510101712 11 237 11.3 20.9 0.00 0.00 0.00 86 1016.9
20260510101212 11 228 8.0 19.3 0.00 0.00 0.00 86 1016.9
20260510100713 11 231 9.7 16.1 0.00 0.00 0.00 86 1016.9
20260510100433 11 230 9.7 17.7 0.00 0.00 0.00 86 1016.8
20260510095710 11 241 6.4 17.7 0.00 0.00 0.00 86 1016.7
20260510095211 11 220 4.8 11.3 0.00 0.00 0.00 85 1016.5
20260510094707 11 227 4.8 8.0 0.00 0.00 0.00 85 1016.5
20260510094205 11 198 4.8 8.0 0.00 0.00 0.00 85 1016.4
20260510093701 11 196 3.2 8.0 0.00 0.00 0.00 85 1016.3
20260510093156 12 219 3.2 6.4 0.00 0.00 0.00 85 1016.4
20260510092655 12 198 3.2 6.4 0.00 0.00 0.00 84 1016.3
20260510092154 12 223 3.2 6.4 0.00 0.00 0.00 84 1016.4
20260510091645 12 207 3.2 6.4 0.00 0.00 0.00 84 1016.3
20260510091150 12 180 3.2 6.4 0.00 0.00 0.00 83 1016.3
20260510090647 12 194 3.2 6.4 0.00 0.00 0.00 83 1016.2
20260510090146 12 181 3.2 8.0 0.00 0.00 0.00 83 1016.3
20260510085646 12 223 3.2 8.0 0.00 0.00 0.00 83 1016.4
20260510085136 12 161 1.6 6.4 0.00 0.00 0.00 82 1016.3
20260510084623 12 164 1.6 6.4 0.00 0.00 0.00 82 1016.4
20260510084104 12 196 3.2 6.4 0.00 0.00 0.00 82 1016.3
20260510083558 12 222 6.4 12.9 0.00 0.00 0.00 82 1016.4
20260510083054 12 212 6.4 12.9 0.00 0.00 0.00 81 1016.3
20260510082554 12 234 6.4 12.9 0.00 0.00 0.00 81 1016.4
20260510082055 13 224 4.8 8.0 0.00 0.00 0.00 81 1016.3
20260510081551 13 195 4.8 6.4 0.00 0.00 0.00 81 1016.1
20260510081052 13 200 4.8 9.7 0.00 0.00 0.00 81 1016.0
20260510080549 13 189 4.8 9.7 0.00 0.00 0.00 81 1016.1
20260510080052 13 167 4.8 8.0 0.00 0.00 0.00 81 1016.1
20260510075551 13 160 3.2 6.4 0.00 0.00 0.00 81 1016.2
20260510075053 13 162 3.2 4.8 0.00 0.00 0.00 80 1016.3
20260510074543 13 212 3.2 4.8 0.00 0.00 0.00 80 1016.3
20260510074044 13 212 3.2 3.2 0.00 0.00 0.00 80 1016.2
20260510073802 13 212 1.6 4.8 0.00 0.00 0.00 79 1016.1
20260510073035 13 212 3.2 8.0 0.00 0.00 0.00 78 1016.2
20260510072758 14 219 4.8 8.0 0.00 0.00 0.00 76 1016.0
20260510072032 14 241 6.4 9.7 0.00 0.00 0.00 76 1016.0
20260510071533 14 233 6.4 9.7 0.00 0.00 0.00 76 1015.9
20260510071033 14 240 6.4 12.9 0.00 0.00 0.00 75 1016.0
20260510070533 14 222 6.4 12.9 0.00 0.00 0.00 75 1015.9
20260510070032 15 242 6.4 9.7 0.00 0.00 0.00 74 1016.0
20260510065531 15 247 4.8 8.0 0.00 0.00 0.00 73 1016.0
20260510065027 15 236 6.4 12.9 0.00 0.00 0.00 73 1015.8
20260510064751 15 234 6.4 12.9 0.00 0.00 0.00 73 1015.8
20260510064250 15 237 6.4 9.7 0.00 0.00 0.00 73 1015.9
20260510063527 15 231 6.4 9.7 0.00 0.00 0.00 73 1015.8
20260510063024 15 231 6.4 12.9 0.00 0.00 0.00 72 1015.7
20260510062525 15 239 6.4 12.9 0.00 0.00 0.00 72 1015.8
20260510062025 15 244 4.8 8.0 0.00 0.00 0.00 73 1015.8
20260510061742 15 223 3.2 4.8 0.00 0.00 0.00 74 1015.8
20260510061021 15 225 1.6 6.4 0.00 0.00 0.00 74 1015.7
20260510060516 15 225 1.6 6.4 0.00 0.00 0.00 75 1015.7
20260510060017 15 12 0.0 3.2 0.00 0.00 0.00 77 1015.7
20260510055513 16 12 0.0 3.2 0.00 0.00 0.00 77 1015.7
20260510055014 16 12 0.0 1.6 0.00 0.00 0.00 76 1015.6
20260510054506 16 12 0.0 0.0 0.00 0.00 0.00 77 1015.5
20260510053951 16 12 0.0 4.8 0.00 0.00 0.00 76 1015.6
20260510053436 16 18 0.0 3.2 0.00 0.00 0.00 77 1015.7
20260510052925 16 18 1.6 3.2 0.00 0.00 0.00 77 1015.7
20260510052420 16 18 0.0 3.2 0.00 0.00 0.00 78 1015.6
20260510051912 16 265 1.6 4.8 0.00 0.00 0.00 77 1015.6
20260510051409 16 265 1.6 4.8 0.00 0.00 0.00 77 1015.5
20260510051129 16 261 3.2 6.4 0.00 0.00 0.00 78 1015.4
20260510050404 16 250 3.2 8.0 0.00 0.00 0.00 79 1015.3
20260510045854 16 250 3.2 8.0 0.00 0.00 0.00 80 1015.3
20260510045351 16 233 3.2 6.4 0.00 0.00 0.00 80 1015.2
20260510044852 17 270 3.2 6.4 0.00 0.00 0.00 80 1015.1
20260510044350 17 260 3.2 6.4 0.00 0.00 0.00 79 1015.0
20260510043847 17 254 1.6 4.8 0.00 0.00 0.00 76 1014.9
20260510043342 17 241 1.6 3.2 0.00 0.00 0.00 74 1015.0
20260510042840 17 241 0.0 1.6 0.00 0.00 0.00 73 1014.9
20260510042329 17 241 0.0 1.6 0.00 0.00 0.00 73 1014.9
20260510041828 17 241 0.0 1.6 0.00 0.00 0.00 73 1014.8
20260510041320 17 241 0.0 3.2 0.00 0.00 0.00 73 1014.7
20260510040811 17 241 1.6 3.2 0.00 0.00 0.00 73 1014.7
20260510040302 18 265 1.6 3.2 0.00 0.00 0.00 70 1014.7
20260510040022 18 265 3.2 4.8 0.00 0.00 0.00 68 1014.6
20260510035306 18 265 1.6 4.8 0.00 0.00 0.00 67 1014.4
20260510034750 18 265 1.6 4.8 0.00 0.00 0.00 67 1014.4
20260510034237 18 252 1.6 4.8 0.00 0.00 0.00 66 1014.3
20260510033723 18 252 3.2 4.8 0.00 0.00 0.00 66 1014.3
20260510033219 19 270 3.2 4.8 0.00 0.00 0.00 66 1014.3
20260510032719 19 258 3.2 4.8 0.00 0.00 0.00 65 1014.3
20260510032220 19 270 3.2 4.8 0.00 0.00 0.00 65 1014.3
20260510031940 20 257 3.2 4.8 0.00 0.00 0.00 65 1014.2
20260510031427 20 296 3.2 4.8 0.00 0.00 0.00 63 1014.2
20260510030710 20 296 1.6 4.8 0.00 0.00 0.00 62 1014.1
20260510030422 21 296 1.6 4.8 0.00 0.00 0.00 63 1014.1
20260510025654 21 296 1.6 4.8 0.00 0.00 0.00 58 1014.1
20260510025155 21 343 1.6 4.8 0.00 0.00 0.00 57 1014.0
20260510024649 21 343 3.2 4.8 0.00 0.00 0.00 56 1013.9
20260510024148 21 346 3.2 4.8 0.00 0.00 0.00 55 1013.9
20260510023641 22 356 4.8 8.0 0.00 0.00 0.00 54 1013.9
20260510023130 22 342 4.8 8.0 0.00 0.00 0.00 53 1014.0
20260510022621 22 324 4.8 6.4 0.00 0.00 0.00 53 1014.0
20260510022542 22 320 4.8 9.7 0.00 0.00 0.00 51 1014.1
20260510021552 22 2 4.8 9.7 0.00 0.00 0.00 51 1014.0
20260510021045 22 328 6.4 12.9 0.00 0.00 0.00 50 1014.2
20260510020546 22 350 6.4 12.9 0.00 0.00 0.00 49 1014.2
20260510020045 22 4 4.8 9.7 0.00 0.00 0.00 50 1014.3
20260510015545 22 357 4.8 9.7 0.00 0.00 0.00 51 1014.4
20260510015045 23 346 4.8 9.7 0.00 0.00 0.00 51 1014.4
20260510014549 23 352 4.8 8.0 0.00 0.00 0.00 50 1014.4
20260510014047 23 327 4.8 11.3 0.00 0.00 0.00 50 1014.3
20260510013540 23 0 6.4 12.9 0.00 0.00 0.00 49 1014.3
20260510013300 23 359 6.4 12.9 0.00 0.00 0.00 46 1014.4
20260510012800 23 3 6.4 12.9 0.00 0.00 0.00 49 1014.3
20260510012037 23 347 6.4 12.9 0.00 0.00 0.00 48 1014.3
20260510011536 24 348 6.4 12.9 0.00 0.00 0.00 49 1014.5
20260510011036 23 350 6.4 14.5 0.00 0.00 0.00 49 1014.5
20260510010534 23 337 6.4 14.5 0.00 0.00 0.00 49 1014.4
20260510010300 23 359 8.0 12.9 0.00 0.00 0.00 48 1014.5
20260510005531 24 343 8.0 14.5 0.00 0.00 0.00 47 1014.6
20260510005034 24 345 8.0 16.1 0.00 0.00 0.00 45 1014.6
20260510004530 23 352 8.0 17.7 0.00 0.00 0.00 46 1014.6
20260510004032 24 15 8.0 17.7 0.00 0.00 0.00 44 1014.6
20260510003531 24 337 8.0 17.7 0.00 0.00 0.00 45 1014.6
20260510003030 25 321 8.0 17.7 0.00 0.00 0.00 42 1014.7
20260510002532 24 3 8.0 17.7 0.00 0.00 0.00 44 1014.6
20260510002031 24 336 8.0 17.7 0.00 0.00 0.00 45 1014.7
20260510001748 24 357 8.0 16.1 0.00 0.00 0.00 46 1014.7
20260510001024 25 358 8.0 16.1 0.00 0.00 0.00 46 1014.6
20260510000522 24 344 8.0 16.1 0.00 0.00 0.00 48 1014.7
20260510000021 24 33 8.0 16.1 0.00 0.00 0.00 46 1014.7
20260509235738 25 0 11.3 20.9 0.00 0.00 0.00 46 1014.7
20260509235618 24 2 9.7 20.9 0.00 0.00 0.00 46 1014.7
20260509234736 24 359 11.3 17.7 0.00 0.00 0.00 48 1014.8
20260509234239 25 12 11.3 17.7 0.00 0.00 0.00 50 1014.7
20260509233511 25 344 9.7 19.3 0.00 0.00 0.00 48 1014.7
20260509233007 25 5 11.3 19.3 0.00 0.00 0.00 48 1014.8
20260509232506 24 356 9.7 17.7 0.00 0.00 0.00 47 1014.8
20260509232005 24 359 11.3 17.7 0.00 0.00 0.00 50 1014.9
20260509231501 24 21 11.3 17.7 0.00 0.00 0.00 46 1015.0
20260509231003 24 16 11.3 17.7 0.00 0.00 0.00 50 1015.1
20260509230458 24 11 11.3 19.3 0.00 0.00 0.00 48 1015.1
20260509225958 24 352 9.7 19.3 0.00 0.00 0.00 50 1015.2
20260509225458 25 333 9.7 19.3 0.00 0.00 0.00 50 1015.3
20260509224956 24 344 11.3 29.0 0.00 0.00 0.00 52 1015.5
20260509224719 24 344 11.3 29.0 0.00 0.00 0.00 53 1015.6
20260509223954 24 344 11.3 24.1 0.00 0.00 0.00 54 1015.6
20260509223454 24 348 12.9 24.1 0.00 0.00 0.00 53 1015.6
20260509222953 25 348 11.3 20.9 0.00 0.00 0.00 53 1015.6
20260509222454 24 6 9.7 19.3 0.00 0.00 0.00 53 1015.7
20260509221954 24 19 8.0 17.7 0.00 0.00 0.00 51 1015.8
20260509221451 24 345 8.0 16.1 0.00 0.00 0.00 54 1015.8
20260509221210 24 31 9.7 16.1 0.00 0.00 0.00 53 1015.9
20260509220450 24 76 11.3 20.9 0.00 0.00 0.00 50 1016.0
20260509215949 23 48 11.3 20.9 0.00 0.00 0.00 55 1016.2
20260509215449 23 350 11.3 19.3 0.00 0.00 0.00 54 1016.2
20260509214947 23 6 11.3 19.3 0.00 0.00 0.00 55 1016.3
20260509214446 23 4 11.3 19.3 0.00 0.00 0.00 55 1016.5
20260509213946 23 64 11.3 19.3 0.00 0.00 0.00 55 1016.6
20260509213445 24 29 11.3 20.9 0.00 0.00 0.00 56 1016.5
20260509212945 23 8 11.3 20.9 0.00 0.00 0.00 54 1016.5
20260509212445 23 2 12.9 22.5 0.00 0.00 0.00 53 1016.4
20260509211942 23 349 11.3 22.5 0.00 0.00 0.00 53 1016.6
20260509211444 23 5 9.7 19.3 0.00 0.00 0.00 55 1016.6
20260509210944 23 352 8.0 17.7 0.00 0.00 0.00 59 1016.6
20260509210702 23 4 9.7 20.9 0.00 0.00 0.00 56 1016.5
20260509210205 23 9 11.3 20.9 0.00 0.00 0.00 56 1016.7
20260509205440 22 13 9.7 17.7 0.00 0.00 0.00 58 1016.9
20260509204939 22 352 9.7 20.9 0.00 0.00 0.00 58 1016.8
20260509204439 23 356 11.3 22.5 0.00 0.00 0.00 54 1016.8
20260509203937 23 13 11.3 22.5 0.00 0.00 0.00 54 1016.9
20260509203659 23 343 9.7 20.9 0.00 0.00 0.00 57 1017.1
20260509202936 23 329 9.7 19.3 0.00 0.00 0.00 57 1017.0
20260509202433 23 28 11.3 19.3 0.00 0.00 0.00 58 1017.1
20260509201935 22 358 9.7 16.1 0.00 0.00 0.00 61 1017.1
20260509201435 22 354 9.7 19.3 0.00 0.00 0.00 62 1017.1
20260509201412 21 334 9.7 19.3 0.00 0.00 0.00 59 1017.2
20260509200428 22 27 11.3 19.3 0.00 0.00 0.00 60 1017.2
20260509200152 21 338 12.9 19.3 0.00 0.00 0.00 61 1017.3
20260509195645 21 19 11.3 19.3 0.00 0.00 0.00 60 1017.4
20260509194922 22 34 9.7 17.7 0.00 0.00 0.00 60 1017.4
20260509194423 22 22 8.0 16.1 0.00 0.00 0.00 61 1017.5
20260509193922 21 340 8.0 16.1 0.00 0.00 0.00 62 1017.5
20260509193909 21 353 9.7 17.7 0.00 0.00 0.00 63 1017.4
20260509193135 21 338 11.3 20.9 0.00 0.00 0.00 62 1017.5
20260509192415 21 9 11.3 20.9 0.00 0.00 0.00 64 1017.6
20260509192134 21 357 9.7 20.9 0.00 0.00 0.00 62 1017.6
20260509191410 20 358 9.7 17.7 0.00 0.00 0.00 67 1017.8
20260509190907 20 27 9.7 17.7 0.00 0.00 0.00 65 1017.9
20260509190408 20 359 8.0 16.1 0.00 0.00 0.00 67 1017.9